STARLINK-5712, 55615

Orbit data source: Space-Track

STARLINK-5712, 55615 is a payload satellite owned by SpaceX/Seattle (US) in LEO that was launched on Sun, 12 Feb 2023 UTC via an FALCON 9 launch vehicle from the Air Force Eastern Test Range (AFETR). Payload-class satellites include a variety of spacecraft equipped with specific instruments for various scientific and technological missions. These include communications satellites like Starlink; space stations such as the ISS; scientific satellites like the Hubble; Earth observation satellites from companies like Planet Labs, Umbra, and HawkEye 360; GPS; miniature CubeSats for education and research; and military/defense satellites.

Loading next visibility...
Identifier
55615, 2023-020AY
Orbit
LEO
Country
Flag of USUS
Related business
Manufacturer
SpaceX/Seattle
Mission
Operational Commercial Communications
Bus & Motor
STARLINK, Unknown motor
Mass
305 kg wet, ~290 kg dry
Launch date (UTC)
2023-02-12 (4 years ago)
Launch vehicle
FALCON 9
Launch site
Air Force Eastern Test Range (AFETR)
Object type
Payload
Rocket body
Debris
Shape & HBR
Box + 1 Pan, 10.1 m
Radar Cross Section
13.562 m², Large (>1 m²)

Expand to show TLE details & history
Last TLE update: 1 day ago

TLE from 1 day ago
0 STARLINK-5712
1 55615U 23020AY  26263.28360093 -.00001712  00000-0 -52691-4 0  9999
2 55615  43.0034 334.9523 0001257 255.7402 104.3310 15.27578744198805
Epoch: 2026-09-20T06:48Z
TLE epoch observation values (Epoch: 2026-09-20T06:48:23.120Z)
Latitude
-0.00002°
Longitude
-126.32406°
Altitude
483.042 km
Speed
7.626 km/s
True Right ascension
22h 19m 48s
True Declination
0° 00' 00"
Sunlit
Object was in full shadow at epoch
Visualization orbit readout
Latitude
Unknown
Longitude
Unknown
Altitude
Unknown
Speed
Unknown
Apparent Right ascension
Unknown
Apparent Declination
Unknown
Sunlit
N/A
Visualization observer readout
Local Sidereal Time
04:02:54
Azimuth
Unknown
Elevation
Unknown
Doppler factor
Unknown
Orbital elements
Apogee altitude
485.86 km
Perigee altitude
484.135 km
Semi-major axis
6,863.134 km
Eccentricity
0.00013
Inclination
43.0034°
RAAN
334.9523°
Arg. of periapsis
255.7402°
True anomaly
104.34496°
Mean anomaly
104.331°
Eccentric anomaly
104.33798°
Mean motion
3.81733 °/min
Orbital period
94.31 mins
BSTAR
-0.000052691
Loading maneuver chart data...
Computing Atmospheric mass density...
Loading historical data...
Loading historical data...
Loading historical data...
Loading historical data...
Loading historical data...
Loading historical data...
Loading historical data...

Documentation

Showing up to 5 results
|